Notices

Please take our survey and provide feedback: https://eccc.sondage-survey.ca/f/LanguageSelection.aspx?s=442ca660-fcf1-47c0-95a9-59707d6fd709

Please note that for the Engineering Climate Datasets, IDF dataset is available through this link.  Intensity-Duration-Frequency (IDF) Files: Includes the latest version of short-duration rainfall Intensity-Duration-Frequency (IDF) statistics in the form of tables and graphs with accompanying documentation for various locations across Canada.  Current IDF files can be accessed through our station finder application or downloaded for each province and territory across Canada.  In addition, historical versions of IDF files are also available for download.  Updates of IDF files are provided approximately every two years depending on the availability of data.   Thank you for your patience as we enhance our systems.

Hourly Data Report for June 04, 2020

TRENTON A
ONTARIO
Current Station Operator: DND

44°07'00.000" N
77°32'00.000" W
86.30 m
6158875
71621
YTR

Download Data

Hourly Data (June 2020)
Hourly Data Report for June 4, 2020
TIME
LST
Temp Definition
°C
Dew Point Definition
°C
Rel Hum Definition
%
Precip. Amount Definition
mm

Wind Dir Definition
10's deg

Wind Spd Definition
km/h
Visibility Definition
km
Stn Press Definition
kPa
Hmdx Definition


Wind Chill Definition


Weather Definition


00:00 15.3 10.4 73   19 4 24.1 99.59     Clear
01:00 14.1 13.1 94     0 24.1 99.61     Clear
02:00 15.1 10.6 74   19 9 24.1 99.68     Mainly Clear
03:00 14.5 12.9 90   21 8 24.1 99.64     Mostly Cloudy
04:00 14.9 10.2 73   23 9 24.1 99.65     Mostly Cloudy
05:00 14.0 12.6 91   21 9 24.1 99.70     Mainly Clear
06:00 14.2 12.6 90   21 8 24.1 99.76     Mainly Clear
07:00 16.1 13.4 84   19 5 24.1 99.79     Mainly Clear
08:00 19.3 14.0 71   19 4 24.1 99.78     Mainly Clear
09:00 21.2 14.2 64   17 5 24.1 99.80 25   Mainly Clear
10:00 20.8 13.6 63   21 11 24.1 99.82     Mostly Cloudy
11:00 22.6 12.2 52   21 15 24.1 99.81 25   Mostly Cloudy
12:00 22.7 13.1 55   21 17 24.1 99.83 26   Mostly Cloudy
13:00 23.4 15.5 61   19 15 24.1 99.79 28   Mostly Cloudy
14:00 23.5 15.5 61   19 15 24.1 99.74 28   Mainly Clear
15:00 23.6 15.1 59   20 18 24.1 99.71 28   Mostly Cloudy
16:00 25.4 14.9 52   20 11 24.1 99.69 29   Mostly Cloudy
17:00 23.5 15.4 60   20 11 24.1 99.72 28   Cloudy
18:00 22.2 14.7 63   21 8 24.1 99.75 26   Cloudy
19:00 20.9 15.1 69   21 8 24.1 99.76 25   Cloudy
20:00 19.6 15.0 75   23 9 24.1 99.82     Cloudy
21:00 18.2 14.7 80   21 8 24.1 99.85     Cloudy
22:00 18.1 12.4 69   20 5 24.1 99.87     Cloudy
23:00 17.9 14.8 82   20 8 24.1 99.88     Cloudy

Notes on Data Quality.

Legend

  • E = Estimated
  • M = Missing
  • NA = Not Available*
  • [empty] = Indicates an unobserved value
Date modified: